Year,Month,Day,Hour,Minute,Value (Times are PST for temperature in C)
2016,02,19,00,00,8.10
2016,02,19,00,01,8.10
2016,02,19,00,02,8.10
2016,02,19,00,03,8.10
2016,02,19,00,04,8.10
2016,02,19,00,05,8.10
2016,02,19,00,06,8.10
2016,02,19,00,07,8.10
2016,02,19,00,08,8.10
2016,02,19,00,09,8.10
2016,02,19,00,10,8.10
2016,02,19,00,11,8.10
2016,02,19,00,12,8.10
2016,02,19,00,13,8.10
2016,02,19,00,14,8.10
2016,02,19,00,15,8.10
2016,02,19,00,16,8.10
2016,02,19,00,17,8.00
2016,02,19,00,18,8.00
2016,02,19,00,19,8.00
2016,02,19,00,20,8.00
2016,02,19,00,21,8.00
2016,02,19,00,22,7.90
2016,02,19,00,23,7.90
2016,02,19,00,24,7.90
2016,02,19,00,25,7.90
2016,02,19,00,26,7.90
2016,02,19,00,27,7.80
2016,02,19,00,28,7.80
2016,02,19,00,29,7.80
2016,02,19,00,30,7.80
2016,02,19,00,31,7.80
2016,02,19,00,32,7.80
2016,02,19,00,33,7.80
2016,02,19,00,34,7.80
2016,02,19,00,35,7.80
2016,02,19,00,36,7.80
2016,02,19,00,37,7.80
2016,02,19,00,38,7.80
2016,02,19,00,39,7.80
2016,02,19,00,40,7.80
2016,02,19,00,41,7.80
2016,02,19,00,42,7.80
2016,02,19,00,43,7.80
2016,02,19,00,44,7.80
2016,02,19,00,45,7.80
2016,02,19,00,46,7.80
2016,02,19,00,47,7.80
2016,02,19,00,48,7.80
2016,02,19,00,49,7.80
2016,02,19,00,50,7.80
2016,02,19,00,51,7.80
2016,02,19,00,52,7.80
2016,02,19,00,53,7.70
2016,02,19,00,54,7.70
2016,02,19,00,55,7.70
2016,02,19,00,56,7.70
2016,02,19,00,57,7.70
2016,02,19,00,58,7.70
2016,02,19,00,59,7.70
2016,02,19,01,00,7.70
2016,02,19,01,01,7.70
2016,02,19,01,02,7.70
2016,02,19,01,03,7.70
2016,02,19,01,04,7.70
2016,02,19,01,05,7.70
2016,02,19,01,06,7.70
2016,02,19,01,07,7.70
2016,02,19,01,08,7.60
2016,02,19,01,09,7.70
2016,02,19,01,10,7.70
2016,02,19,01,11,7.70
2016,02,19,01,12,7.70
2016,02,19,01,13,7.70
2016,02,19,01,14,7.70
2016,02,19,01,15,7.70
2016,02,19,01,16,7.70
2016,02,19,01,17,7.60
2016,02,19,01,18,7.60
2016,02,19,01,19,7.60
2016,02,19,01,20,7.60
2016,02,19,01,21,7.60
2016,02,19,01,22,7.60
2016,02,19,01,23,7.60
2016,02,19,01,24,7.60
2016,02,19,01,25,7.60
2016,02,19,01,26,7.60
2016,02,19,01,27,7.60
2016,02,19,01,28,7.60
2016,02,19,01,29,7.60
2016,02,19,01,30,7.60
2016,02,19,01,31,7.50
2016,02,19,01,32,7.50
2016,02,19,01,33,7.50
2016,02,19,01,34,7.50
2016,02,19,01,35,7.50
2016,02,19,01,36,7.50
2016,02,19,01,37,7.50
2016,02,19,01,38,7.50
2016,02,19,01,39,7.50
2016,02,19,01,40,7.50
2016,02,19,01,41,7.50
2016,02,19,01,42,7.50
2016,02,19,01,43,7.40
2016,02,19,01,44,7.50
2016,02,19,01,45,7.50
2016,02,19,01,46,7.40
2016,02,19,01,47,7.50
2016,02,19,01,48,7.50
2016,02,19,01,49,7.40
2016,02,19,01,50,7.40
2016,02,19,01,51,7.40
2016,02,19,01,52,7.40
2016,02,19,01,53,7.40
2016,02,19,01,54,7.40
2016,02,19,01,55,7.40
2016,02,19,01,56,7.40
2016,02,19,01,57,7.30
2016,02,19,01,58,7.30
2016,02,19,01,59,7.30
2016,02,19,02,00,7.30
2016,02,19,02,01,7.30
2016,02,19,02,02,7.30
2016,02,19,02,03,7.30
2016,02,19,02,04,7.30
2016,02,19,02,05,7.30
2016,02,19,02,06,7.30
2016,02,19,02,07,7.30
2016,02,19,02,08,7.30
2016,02,19,02,09,7.20
2016,02,19,02,10,7.20
2016,02,19,02,11,7.20
2016,02,19,02,12,7.20
2016,02,19,02,13,7.30
2016,02,19,02,14,7.30
2016,02,19,02,15,7.30
2016,02,19,02,16,7.30
2016,02,19,02,17,7.30
2016,02,19,02,18,7.30
2016,02,19,02,19,7.30
2016,02,19,02,20,7.30
2016,02,19,02,21,7.40
2016,02,19,02,22,7.40
2016,02,19,02,23,7.40
2016,02,19,02,24,7.40
2016,02,19,02,25,7.40
2016,02,19,02,26,7.40
2016,02,19,02,27,7.40
2016,02,19,02,28,7.40
2016,02,19,02,29,7.40
2016,02,19,02,30,7.40
2016,02,19,02,31,7.40
2016,02,19,02,32,7.40
2016,02,19,02,33,7.40
2016,02,19,02,34,7.40
2016,02,19,02,35,7.40
2016,02,19,02,36,7.40
2016,02,19,02,37,7.40
2016,02,19,02,38,7.40
2016,02,19,02,39,7.40
2016,02,19,02,40,7.40
2016,02,19,02,41,7.40
2016,02,19,02,42,7.50
2016,02,19,02,43,7.50
2016,02,19,02,44,7.50
2016,02,19,02,45,7.50
2016,02,19,02,46,7.60
2016,02,19,02,47,7.60
2016,02,19,02,48,7.60
2016,02,19,02,49,7.70
2016,02,19,02,50,7.70
2016,02,19,02,51,7.80
2016,02,19,02,52,7.80
2016,02,19,02,53,7.80
2016,02,19,02,54,7.90
2016,02,19,02,55,7.90
2016,02,19,02,56,7.90
2016,02,19,02,57,8.00
2016,02,19,02,58,8.00
2016,02,19,02,59,8.00
2016,02,19,03,00,8.10
2016,02,19,03,01,8.10
2016,02,19,03,02,8.10
2016,02,19,03,03,8.10
2016,02,19,03,04,8.10
2016,02,19,03,05,8.10
2016,02,19,03,06,8.10
2016,02,19,03,07,8.10
2016,02,19,03,08,8.10
2016,02,19,03,09,8.10
2016,02,19,03,10,8.10
2016,02,19,03,11,8.10
2016,02,19,03,12,8.20
2016,02,19,03,13,8.20
2016,02,19,03,14,8.20
2016,02,19,03,15,8.30
2016,02,19,03,16,8.30
2016,02,19,03,17,8.30
2016,02,19,03,18,8.30
2016,02,19,03,19,8.30
2016,02,19,03,20,8.30
2016,02,19,03,21,8.30
2016,02,19,03,22,8.30
2016,02,19,03,23,8.30
2016,02,19,03,24,8.30
2016,02,19,03,25,8.30
2016,02,19,03,26,8.30
2016,02,19,03,27,8.30
2016,02,19,03,28,8.30
2016,02,19,03,29,8.30
2016,02,19,03,30,8.30
2016,02,19,03,31,8.20
2016,02,19,03,32,8.20
2016,02,19,03,33,8.20
2016,02,19,03,34,8.20
2016,02,19,03,35,8.10
2016,02,19,03,36,8.10
2016,02,19,03,37,8.10
2016,02,19,03,38,8.10
2016,02,19,03,39,8.10
2016,02,19,03,40,8.10
2016,02,19,03,41,8.10
2016,02,19,03,42,8.10
2016,02,19,03,43,8.10
2016,02,19,03,44,8.10
2016,02,19,03,45,8.10
2016,02,19,03,46,8.10
2016,02,19,03,47,8.10
2016,02,19,03,48,8.00
2016,02,19,03,49,8.00
2016,02,19,03,50,8.00
2016,02,19,03,51,8.00
2016,02,19,03,52,8.00
2016,02,19,03,53,8.00
2016,02,19,03,54,8.00
2016,02,19,03,55,8.00
2016,02,19,03,56,8.00
2016,02,19,03,57,7.90
2016,02,19,03,58,7.90
2016,02,19,03,59,7.90
2016,02,19,04,00,7.90
2016,02,19,04,01,7.90
2016,02,19,04,02,7.90
2016,02,19,04,03,7.90
2016,02,19,04,04,7.90
2016,02,19,04,05,7.90
2016,02,19,04,06,7.90
2016,02,19,04,07,7.90
2016,02,19,04,08,8.00
2016,02,19,04,09,8.10
2016,02,19,04,10,8.20
2016,02,19,04,11,8.20
2016,02,19,04,12,8.20
2016,02,19,04,13,8.20
2016,02,19,04,14,8.20
2016,02,19,04,15,8.20
2016,02,19,04,16,8.20
2016,02,19,04,17,8.10
2016,02,19,04,18,8.10
2016,02,19,04,19,8.10
2016,02,19,04,20,8.10
2016,02,19,04,21,8.10
2016,02,19,04,22,8.10
2016,02,19,04,23,8.10
2016,02,19,04,24,8.10
2016,02,19,04,25,8.10
2016,02,19,04,26,8.10
2016,02,19,04,27,8.10
2016,02,19,04,28,8.10
2016,02,19,04,29,8.10
2016,02,19,04,30,8.10
2016,02,19,04,31,8.10
2016,02,19,04,32,8.10
2016,02,19,04,33,8.10
2016,02,19,04,34,8.10
2016,02,19,04,35,8.10
2016,02,19,04,36,8.10
2016,02,19,04,37,8.10
2016,02,19,04,38,8.10
2016,02,19,04,39,8.10
2016,02,19,04,40,8.10
2016,02,19,04,41,8.10
2016,02,19,04,42,8.20
2016,02,19,04,43,8.20
2016,02,19,04,44,8.10
2016,02,19,04,45,8.10
2016,02,19,04,46,8.10
2016,02,19,04,47,8.10
2016,02,19,04,48,8.10
2016,02,19,04,49,8.10
2016,02,19,04,50,8.10
2016,02,19,04,51,8.10
2016,02,19,04,52,8.10
2016,02,19,04,53,8.10
2016,02,19,04,54,8.10
2016,02,19,04,55,8.10
2016,02,19,04,56,8.10
2016,02,19,04,57,8.10
2016,02,19,04,58,8.10
2016,02,19,04,59,8.10
2016,02,19,05,00,8.10
2016,02,19,05,01,8.10
2016,02,19,05,02,8.10
2016,02,19,05,03,8.10
2016,02,19,05,04,8.10
2016,02,19,05,05,8.10
2016,02,19,05,06,8.10
2016,02,19,05,07,8.10
2016,02,19,05,08,8.10
2016,02,19,05,09,8.10
2016,02,19,05,10,8.10
2016,02,19,05,11,8.10
2016,02,19,05,12,8.10
2016,02,19,05,13,8.10
2016,02,19,05,14,8.10
2016,02,19,05,15,8.10
2016,02,19,05,16,8.00
2016,02,19,05,17,8.00
2016,02,19,05,18,8.00
2016,02,19,05,19,8.00
2016,02,19,05,20,8.00
2016,02,19,05,21,7.90
2016,02,19,05,22,7.90
2016,02,19,05,23,7.90
2016,02,19,05,24,7.90
2016,02,19,05,25,7.90
2016,02,19,05,26,7.90
2016,02,19,05,27,7.90
2016,02,19,05,28,7.90
2016,02,19,05,29,7.90
2016,02,19,05,30,7.90
2016,02,19,05,31,7.90
2016,02,19,05,32,7.90
2016,02,19,05,33,7.90
2016,02,19,05,34,7.90
2016,02,19,05,35,7.90
2016,02,19,05,36,7.90
2016,02,19,05,37,7.80
2016,02,19,05,38,7.80
2016,02,19,05,39,7.80
2016,02,19,05,40,7.90
2016,02,19,05,41,7.90
2016,02,19,05,42,7.90
2016,02,19,05,43,7.90
2016,02,19,05,44,7.90
2016,02,19,05,45,7.90
2016,02,19,05,46,7.90
2016,02,19,05,47,7.90
2016,02,19,05,48,7.80
2016,02,19,05,49,7.80
2016,02,19,05,50,7.80
2016,02,19,05,51,7.80
2016,02,19,05,52,7.80
2016,02,19,05,53,7.80
2016,02,19,05,54,7.80
2016,02,19,05,55,7.80
2016,02,19,05,56,7.90
2016,02,19,05,57,7.90
2016,02,19,05,58,7.90
2016,02,19,05,59,7.90
2016,02,19,06,00,7.90
2016,02,19,06,01,7.90
2016,02,19,06,02,7.90
2016,02,19,06,03,7.90
2016,02,19,06,04,7.90
2016,02,19,06,05,7.90
2016,02,19,06,06,7.90
2016,02,19,06,07,7.90
2016,02,19,06,08,7.90
2016,02,19,06,09,7.90
2016,02,19,06,10,7.90
2016,02,19,06,11,8.00
2016,02,19,06,12,8.00
2016,02,19,06,13,8.00
2016,02,19,06,14,8.00
2016,02,19,06,15,8.00
2016,02,19,06,16,8.00
2016,02,19,06,17,8.00
2016,02,19,06,18,8.00
2016,02,19,06,19,8.00
2016,02,19,06,20,8.00
2016,02,19,06,21,8.00
2016,02,19,06,22,8.00
2016,02,19,06,23,8.00
2016,02,19,06,24,8.00
2016,02,19,06,25,8.00
2016,02,19,06,26,8.00
2016,02,19,06,27,8.00
2016,02,19,06,28,8.00
2016,02,19,06,29,8.00
2016,02,19,06,30,8.00
2016,02,19,06,31,8.00
2016,02,19,06,32,8.00
2016,02,19,06,33,8.00
2016,02,19,06,34,8.00
2016,02,19,06,35,8.00
2016,02,19,06,36,8.00
2016,02,19,06,37,8.10
2016,02,19,06,38,8.00
2016,02,19,06,39,8.00
2016,02,19,06,40,8.00
2016,02,19,06,41,7.90
2016,02,19,06,42,7.90
2016,02,19,06,43,7.80
2016,02,19,06,44,7.80
2016,02,19,06,45,7.80
2016,02,19,06,46,7.80
2016,02,19,06,47,7.70
2016,02,19,06,48,7.70
2016,02,19,06,49,7.70
2016,02,19,06,50,7.70
2016,02,19,06,51,7.70
2016,02,19,06,52,7.70
2016,02,19,06,53,7.70
2016,02,19,06,54,7.70
2016,02,19,06,55,7.70
2016,02,19,06,56,7.70
2016,02,19,06,57,7.70
2016,02,19,06,58,7.70
2016,02,19,06,59,7.70
2016,02,19,07,00,7.70
2016,02,19,07,01,7.70
2016,02,19,07,02,7.70
2016,02,19,07,03,7.70
2016,02,19,07,04,7.70
2016,02,19,07,05,7.70
2016,02,19,07,06,7.80
2016,02,19,07,07,7.80
2016,02,19,07,08,7.80
2016,02,19,07,09,7.80
2016,02,19,07,10,7.80
2016,02,19,07,11,7.80
2016,02,19,07,12,7.80
2016,02,19,07,13,7.80
2016,02,19,07,14,7.80
2016,02,19,07,15,7.80
2016,02,19,07,16,7.80
2016,02,19,07,17,7.70
2016,02,19,07,18,7.70
2016,02,19,07,19,7.70
2016,02,19,07,20,7.70
2016,02,19,07,21,7.70
2016,02,19,07,22,7.70
2016,02,19,07,23,7.70
2016,02,19,07,24,7.70
2016,02,19,07,25,7.70
2016,02,19,07,26,7.70
2016,02,19,07,27,7.70
2016,02,19,07,28,7.80
2016,02,19,07,29,7.80
2016,02,19,07,30,7.80
2016,02,19,07,31,7.80
2016,02,19,07,32,7.80
2016,02,19,07,33,7.90
2016,02,19,07,34,7.90
2016,02,19,07,35,7.90
2016,02,19,07,36,7.90
2016,02,19,07,37,7.90
2016,02,19,07,38,7.90
2016,02,19,07,39,7.90
2016,02,19,07,40,7.90
2016,02,19,07,41,7.90
2016,02,19,07,42,7.90
2016,02,19,07,43,7.90
2016,02,19,07,44,7.90
2016,02,19,07,45,7.90
2016,02,19,07,46,7.90
2016,02,19,07,47,7.90
2016,02,19,07,48,7.90
2016,02,19,07,49,7.90
2016,02,19,07,50,8.00
2016,02,19,07,51,8.00
2016,02,19,07,52,8.00
2016,02,19,07,53,8.00
2016,02,19,07,54,8.00
2016,02,19,07,55,8.00
2016,02,19,07,56,8.00
2016,02,19,07,57,7.90
2016,02,19,07,58,8.00
2016,02,19,07,59,8.00
2016,02,19,08,00,7.90
2016,02,19,08,01,7.90
2016,02,19,08,02,8.00
2016,02,19,08,03,8.00
2016,02,19,08,04,7.90
2016,02,19,08,05,7.90
2016,02,19,08,06,8.00
2016,02,19,08,07,8.00
2016,02,19,08,08,8.00
2016,02,19,08,09,8.00
2016,02,19,08,10,7.90
2016,02,19,08,11,7.90
2016,02,19,08,12,7.90
2016,02,19,08,13,7.80
2016,02,19,08,14,7.80
2016,02,19,08,15,7.80
2016,02,19,08,16,7.80
2016,02,19,08,17,7.70
2016,02,19,08,18,7.70
2016,02,19,08,19,7.70
2016,02,19,08,20,7.70
2016,02,19,08,21,7.70
2016,02,19,08,22,7.70
2016,02,19,08,23,7.80
2016,02,19,08,24,7.80
2016,02,19,08,25,7.80
2016,02,19,08,26,7.80
2016,02,19,08,27,7.80
2016,02,19,08,28,7.80
2016,02,19,08,29,7.80
2016,02,19,08,30,7.80
2016,02,19,08,31,7.80
2016,02,19,08,32,7.90
2016,02,19,08,33,7.90
2016,02,19,08,34,7.90
2016,02,19,08,35,7.90
2016,02,19,08,36,7.90
2016,02,19,08,37,7.90
2016,02,19,08,38,8.00
2016,02,19,08,39,8.00
2016,02,19,08,40,8.00
2016,02,19,08,41,8.00
2016,02,19,08,42,8.00
2016,02,19,08,43,8.00
2016,02,19,08,44,8.00
2016,02,19,08,45,8.00
2016,02,19,08,46,8.00
2016,02,19,08,47,8.00
2016,02,19,08,48,8.00
2016,02,19,08,49,8.00
2016,02,19,08,50,8.00
2016,02,19,08,51,8.00
2016,02,19,08,52,8.00
2016,02,19,08,53,8.00
2016,02,19,08,54,8.00
2016,02,19,08,55,8.00
2016,02,19,08,56,8.00
2016,02,19,08,57,8.00
2016,02,19,08,58,8.10
2016,02,19,08,59,8.10
2016,02,19,09,00,8.10
2016,02,19,09,01,8.10
2016,02,19,09,02,8.10
2016,02,19,09,03,8.10
2016,02,19,09,04,8.10
2016,02,19,09,05,8.00
2016,02,19,09,06,8.00
2016,02,19,09,07,8.00
2016,02,19,09,08,8.00
2016,02,19,09,09,8.00
2016,02,19,09,10,8.00
2016,02,19,09,11,8.00
2016,02,19,09,12,8.00
2016,02,19,09,13,8.10
2016,02,19,09,14,8.10
2016,02,19,09,15,8.00
2016,02,19,09,16,8.00
2016,02,19,09,17,7.90
2016,02,19,09,18,7.90
2016,02,19,09,19,7.80
2016,02,19,09,20,7.80
2016,02,19,09,21,7.80
2016,02,19,09,22,7.70
2016,02,19,09,23,7.70
2016,02,19,09,24,7.70
2016,02,19,09,25,7.70
2016,02,19,09,26,7.70
2016,02,19,09,27,7.70
2016,02,19,09,28,7.70
2016,02,19,09,29,7.70
2016,02,19,09,30,7.80
2016,02,19,09,31,7.80
2016,02,19,09,32,7.80
2016,02,19,09,33,7.80
2016,02,19,09,34,7.90
2016,02,19,09,35,7.90
2016,02,19,09,36,7.90
2016,02,19,09,37,7.90
2016,02,19,09,38,7.80
2016,02,19,09,39,7.80
2016,02,19,09,40,7.80
2016,02,19,09,41,7.80
2016,02,19,09,42,7.80
2016,02,19,09,43,7.80
2016,02,19,09,44,7.80
2016,02,19,09,45,7.80
2016,02,19,09,46,7.80
2016,02,19,09,47,7.80
2016,02,19,09,48,7.90
2016,02,19,09,49,7.90
2016,02,19,09,50,7.90
2016,02,19,09,51,7.80
2016,02,19,09,52,7.80
2016,02,19,09,53,7.80
2016,02,19,09,54,7.80
2016,02,19,09,55,7.80
2016,02,19,09,56,7.80
2016,02,19,09,57,7.80
2016,02,19,09,58,7.80
2016,02,19,09,59,7.80
2016,02,19,10,00,7.80
2016,02,19,10,01,7.70
2016,02,19,10,02,7.70
2016,02,19,10,03,7.70
2016,02,19,10,04,7.70
2016,02,19,10,05,7.60
2016,02,19,10,06,7.60
2016,02,19,10,07,7.60
2016,02,19,10,08,7.60
2016,02,19,10,09,7.60
2016,02,19,10,10,7.60
2016,02,19,10,11,7.60
2016,02,19,10,12,7.60
2016,02,19,10,13,7.60
2016,02,19,10,14,7.50
2016,02,19,10,15,7.50
2016,02,19,10,16,7.50
2016,02,19,10,17,7.50
2016,02,19,10,18,7.50
2016,02,19,10,19,7.50
2016,02,19,10,20,7.50
2016,02,19,10,21,7.50
2016,02,19,10,22,7.50
2016,02,19,10,23,7.50
2016,02,19,10,24,7.50
2016,02,19,10,25,7.50
2016,02,19,10,26,7.50
2016,02,19,10,27,7.50
2016,02,19,10,28,7.50
2016,02,19,10,29,7.50
2016,02,19,10,30,7.50
2016,02,19,10,31,7.50
2016,02,19,10,32,7.50
2016,02,19,10,33,7.50
2016,02,19,10,34,7.50
2016,02,19,10,35,7.40
2016,02,19,10,36,7.40
2016,02,19,10,37,7.40
2016,02,19,10,38,7.50
2016,02,19,10,39,7.40
2016,02,19,10,40,7.40
2016,02,19,10,41,7.50
2016,02,19,10,42,7.50
2016,02,19,10,43,7.50
2016,02,19,10,44,7.50
2016,02,19,10,45,7.50
2016,02,19,10,46,7.50
2016,02,19,10,47,7.40
2016,02,19,10,48,7.40
2016,02,19,10,49,7.40
2016,02,19,10,50,7.40
2016,02,19,10,51,7.40
2016,02,19,10,52,7.40
2016,02,19,10,53,7.40
2016,02,19,10,54,7.40
2016,02,19,10,55,7.40
2016,02,19,10,56,7.40
2016,02,19,10,57,7.50
2016,02,19,10,58,7.50
2016,02,19,10,59,7.50
2016,02,19,11,00,7.50
2016,02,19,11,01,7.40
2016,02,19,11,02,7.40
2016,02,19,11,03,7.40
2016,02,19,11,04,7.40
2016,02,19,11,05,7.40
2016,02,19,11,06,7.40
2016,02,19,11,07,7.40
2016,02,19,11,08,7.40
2016,02,19,11,09,7.40
2016,02,19,11,10,7.40
2016,02,19,11,11,7.40
2016,02,19,11,12,7.40
2016,02,19,11,13,7.40
2016,02,19,11,14,7.40
2016,02,19,11,15,7.40
2016,02,19,11,16,7.40
2016,02,19,11,17,7.40
2016,02,19,11,18,7.40
2016,02,19,11,19,7.40
2016,02,19,11,20,7.40
2016,02,19,11,21,7.40
2016,02,19,11,22,7.40
2016,02,19,11,23,7.40
2016,02,19,11,24,7.40
2016,02,19,11,25,7.40
2016,02,19,11,26,7.40
2016,02,19,11,27,7.40
2016,02,19,11,28,7.40
2016,02,19,11,29,7.40
2016,02,19,11,30,7.40
2016,02,19,11,31,7.40
2016,02,19,11,32,7.40
2016,02,19,11,33,7.50
2016,02,19,11,34,7.40
2016,02,19,11,35,7.50
2016,02,19,11,36,7.50
2016,02,19,11,37,7.50
2016,02,19,11,38,7.50
2016,02,19,11,39,7.50
2016,02,19,11,40,7.50
2016,02,19,11,41,7.50
2016,02,19,11,42,7.50
2016,02,19,11,43,7.50
2016,02,19,11,44,7.50
2016,02,19,11,45,7.60
2016,02,19,11,46,7.60
2016,02,19,11,47,7.60
2016,02,19,11,48,7.60
2016,02,19,11,49,7.60
2016,02,19,11,50,7.50
2016,02,19,11,51,7.50
2016,02,19,11,52,7.50
2016,02,19,11,53,7.50
2016,02,19,11,54,7.40
2016,02,19,11,55,7.40
2016,02,19,11,56,7.40
2016,02,19,11,57,7.40
2016,02,19,11,58,7.50
2016,02,19,11,59,7.50
2016,02,19,12,00,7.50
2016,02,19,12,01,7.50
2016,02,19,12,02,7.50
2016,02,19,12,03,7.50
2016,02,19,12,04,7.50
2016,02,19,12,05,7.50
2016,02,19,12,06,7.40
2016,02,19,12,07,7.40
2016,02,19,12,08,7.40
2016,02,19,12,09,7.40
2016,02,19,12,10,7.40
2016,02,19,12,11,7.40
2016,02,19,12,12,7.40
2016,02,19,12,13,7.40
2016,02,19,12,14,7.40
2016,02,19,12,15,7.40
2016,02,19,12,16,7.40
2016,02,19,12,17,7.40
2016,02,19,12,18,7.40
2016,02,19,12,19,7.40
2016,02,19,12,20,7.50
2016,02,19,12,21,7.40
2016,02,19,12,22,7.50
2016,02,19,12,23,7.40
2016,02,19,12,24,7.40
2016,02,19,12,25,7.40
2016,02,19,12,26,7.40
2016,02,19,12,27,7.50
2016,02,19,12,28,7.50
2016,02,19,12,29,7.50
2016,02,19,12,30,7.40
2016,02,19,12,31,7.40
2016,02,19,12,32,7.40
2016,02,19,12,33,7.40
2016,02,19,12,34,7.50
2016,02,19,12,35,7.50
2016,02,19,12,36,7.50
2016,02,19,12,37,7.50
2016,02,19,12,38,7.50
2016,02,19,12,39,7.50
2016,02,19,12,40,7.50
2016,02,19,12,41,7.50
2016,02,19,12,42,7.50
2016,02,19,12,43,7.50
2016,02,19,12,44,7.50
2016,02,19,12,45,7.50
2016,02,19,12,46,7.50
2016,02,19,12,47,7.50
2016,02,19,12,48,7.50
2016,02,19,12,49,7.50
2016,02,19,12,50,7.50
2016,02,19,12,51,7.50
2016,02,19,12,52,7.50
2016,02,19,12,53,7.50
2016,02,19,12,54,7.50
2016,02,19,12,55,7.50
2016,02,19,12,56,7.50
2016,02,19,12,57,7.50
2016,02,19,12,58,7.50
2016,02,19,12,59,7.50
2016,02,19,13,00,7.50
2016,02,19,13,01,7.50
2016,02,19,13,02,7.60
2016,02,19,13,03,7.50
2016,02,19,13,04,7.60
2016,02,19,13,05,7.50
2016,02,19,13,06,7.50
2016,02,19,13,07,7.50
2016,02,19,13,08,7.50
2016,02,19,13,09,7.50
2016,02,19,13,10,7.50
2016,02,19,13,11,7.60
2016,02,19,13,12,7.60
2016,02,19,13,13,7.60
2016,02,19,13,14,7.60
2016,02,19,13,15,7.60
2016,02,19,13,16,7.60
2016,02,19,13,17,7.60
2016,02,19,13,18,7.60
2016,02,19,13,19,7.60
2016,02,19,13,20,7.60
2016,02,19,13,21,7.60
2016,02,19,13,22,7.60
2016,02,19,13,23,7.60
2016,02,19,13,24,7.60
2016,02,19,13,25,7.60
2016,02,19,13,26,7.60
2016,02,19,13,27,7.60
2016,02,19,13,28,7.60
2016,02,19,13,29,7.60
2016,02,19,13,30,7.60
2016,02,19,13,31,7.60
2016,02,19,13,32,7.60
2016,02,19,13,33,7.60
2016,02,19,13,34,7.60
2016,02,19,13,35,7.60
2016,02,19,13,36,7.60
2016,02,19,13,37,7.60
2016,02,19,13,38,7.60
2016,02,19,13,39,7.60
2016,02,19,13,40,7.60
2016,02,19,13,41,7.60
2016,02,19,13,42,7.60
2016,02,19,13,43,7.60
2016,02,19,13,44,7.60
2016,02,19,13,45,7.60
2016,02,19,13,46,7.60
2016,02,19,13,47,7.60
2016,02,19,13,48,7.70
2016,02,19,13,49,7.70
2016,02,19,13,50,7.70
2016,02,19,13,51,7.70
2016,02,19,13,52,7.70
2016,02,19,13,53,7.70
2016,02,19,13,54,7.70
2016,02,19,13,55,7.70
2016,02,19,13,56,7.70
2016,02,19,13,57,7.70
2016,02,19,13,58,7.70
2016,02,19,13,59,7.70
2016,02,19,14,00,7.70
2016,02,19,14,01,7.70
2016,02,19,14,02,7.70
2016,02,19,14,03,7.70
2016,02,19,14,04,7.70
2016,02,19,14,05,7.70
2016,02,19,14,06,7.70
2016,02,19,14,07,7.70
2016,02,19,14,08,7.70
2016,02,19,14,09,7.70
2016,02,19,14,10,7.70
2016,02,19,14,11,7.70
2016,02,19,14,12,7.70
2016,02,19,14,13,7.70
2016,02,19,14,14,7.70
2016,02,19,14,15,7.70
2016,02,19,14,16,7.70
2016,02,19,14,17,7.70
2016,02,19,14,18,7.70
2016,02,19,14,19,7.70
2016,02,19,14,20,7.70
2016,02,19,14,21,7.70
2016,02,19,14,22,7.70
2016,02,19,14,23,7.70
2016,02,19,14,24,7.70
2016,02,19,14,25,7.70
2016,02,19,14,26,7.70
2016,02,19,14,27,7.70
2016,02,19,14,28,7.80
2016,02,19,14,29,7.80
2016,02,19,14,30,7.80
2016,02,19,14,31,7.80
2016,02,19,14,32,7.80
2016,02,19,14,33,7.80
2016,02,19,14,34,7.80
2016,02,19,14,35,7.80
2016,02,19,14,36,7.90
2016,02,19,14,37,7.90
2016,02,19,14,38,7.90
2016,02,19,14,39,7.90
2016,02,19,14,40,7.90
2016,02,19,14,41,8.00
2016,02,19,14,42,8.00
2016,02,19,14,43,8.00
2016,02,19,14,44,8.00
2016,02,19,14,45,8.10
2016,02,19,14,46,8.10
2016,02,19,14,47,8.10
2016,02,19,14,48,8.10
2016,02,19,14,49,8.10
2016,02,19,14,50,8.10
2016,02,19,14,51,8.10
2016,02,19,14,52,8.10
2016,02,19,14,53,8.10
2016,02,19,14,54,8.10
2016,02,19,14,55,8.10
2016,02,19,14,56,8.10
2016,02,19,14,57,8.10
2016,02,19,14,58,8.10
2016,02,19,14,59,8.20
2016,02,19,15,00,8.20
2016,02,19,15,01,8.20
2016,02,19,15,02,8.20
2016,02,19,15,03,8.20
2016,02,19,15,04,8.20
2016,02,19,15,05,8.20
2016,02,19,15,06,8.20
2016,02,19,15,07,8.20
2016,02,19,15,08,8.30
2016,02,19,15,09,8.30
2016,02,19,15,10,8.30
2016,02,19,15,11,8.30
2016,02,19,15,12,8.30
2016,02,19,15,13,8.30
2016,02,19,15,14,8.30
2016,02,19,15,15,8.30
2016,02,19,15,16,8.30
2016,02,19,15,17,8.30
2016,02,19,15,18,8.30
2016,02,19,15,19,8.30
2016,02,19,15,20,8.30
2016,02,19,15,21,8.30
2016,02,19,15,22,8.30
2016,02,19,15,23,8.30
2016,02,19,15,24,8.30
2016,02,19,15,25,8.30
2016,02,19,15,26,8.30
2016,02,19,15,27,8.30
2016,02,19,15,28,8.30
2016,02,19,15,29,8.30
2016,02,19,15,30,8.30
2016,02,19,15,31,8.40
2016,02,19,15,32,8.40
2016,02,19,15,33,8.50
2016,02,19,15,34,8.50
2016,02,19,15,35,8.60
2016,02,19,15,36,8.60
2016,02,19,15,37,8.60
2016,02,19,15,38,8.60
2016,02,19,15,39,8.60
2016,02,19,15,40,8.60
2016,02,19,15,41,8.60
2016,02,19,15,42,8.60
2016,02,19,15,43,8.60
2016,02,19,15,44,8.70
2016,02,19,15,45,8.70
2016,02,19,15,46,8.70
2016,02,19,15,47,8.70
2016,02,19,15,48,8.70
2016,02,19,15,49,8.70
2016,02,19,15,50,8.70
2016,02,19,15,51,8.70
2016,02,19,15,52,8.70
2016,02,19,15,53,8.70
2016,02,19,15,54,8.70
2016,02,19,15,55,8.70
2016,02,19,15,56,8.70
2016,02,19,15,57,8.70
2016,02,19,15,58,8.70
2016,02,19,15,59,8.70
2016,02,19,16,00,8.80
2016,02,19,16,01,8.80
2016,02,19,16,02,8.80
2016,02,19,16,03,8.90
2016,02,19,16,04,8.90
2016,02,19,16,05,9.00
2016,02,19,16,06,9.00
2016,02,19,16,07,9.10
2016,02,19,16,08,9.10
2016,02,19,16,09,9.20
2016,02,19,16,10,9.20
2016,02,19,16,11,9.20
2016,02,19,16,12,9.30
2016,02,19,16,13,9.30
2016,02,19,16,14,9.30
2016,02,19,16,15,9.30
2016,02,19,16,16,9.30
2016,02,19,16,17,9.30
2016,02,19,16,18,9.30
2016,02,19,16,19,9.40
2016,02,19,16,20,9.40
2016,02,19,16,21,9.40
2016,02,19,16,22,9.40
2016,02,19,16,23,9.40
2016,02,19,16,24,9.40
2016,02,19,16,25,9.40
2016,02,19,16,26,9.40
2016,02,19,16,27,9.40
2016,02,19,16,28,9.40
2016,02,19,16,29,9.40
2016,02,19,16,30,9.40
2016,02,19,16,31,9.40
2016,02,19,16,32,9.40
2016,02,19,16,33,9.40
2016,02,19,16,34,9.50
2016,02,19,16,35,9.50
2016,02,19,16,36,9.50
2016,02,19,16,37,9.50
2016,02,19,16,38,9.50
2016,02,19,16,39,9.40
2016,02,19,16,40,9.50
2016,02,19,16,41,9.50
2016,02,19,16,42,9.50
2016,02,19,16,43,9.50
2016,02,19,16,44,9.40
2016,02,19,16,45,9.40
2016,02,19,16,46,9.40
2016,02,19,16,47,9.40
2016,02,19,16,48,9.40
2016,02,19,16,49,9.50
2016,02,19,16,50,9.50
2016,02,19,16,51,9.40
2016,02,19,16,52,9.40
2016,02,19,16,53,9.40
2016,02,19,16,54,9.40
2016,02,19,16,55,9.40
2016,02,19,16,56,9.40
2016,02,19,16,57,9.40
2016,02,19,16,58,9.40
2016,02,19,16,59,9.40
2016,02,19,17,00,9.40
2016,02,19,17,01,9.50
2016,02,19,17,02,9.50
2016,02,19,17,03,9.50
2016,02,19,17,04,9.50
2016,02,19,17,05,9.40
2016,02,19,17,06,9.40
2016,02,19,17,07,9.40
2016,02,19,17,08,9.30
2016,02,19,17,09,9.30
2016,02,19,17,10,9.20
2016,02,19,17,11,9.20
2016,02,19,17,12,9.10
2016,02,19,17,13,9.10
2016,02,19,17,14,9.10
2016,02,19,17,15,9.10
2016,02,19,17,16,9.10
2016,02,19,17,17,9.10
2016,02,19,17,18,9.10
2016,02,19,17,19,9.10
2016,02,19,17,20,9.10
2016,02,19,17,21,9.10
2016,02,19,17,22,9.10
2016,02,19,17,23,9.10
2016,02,19,17,24,9.10
2016,02,19,17,25,9.00
2016,02,19,17,26,9.00
2016,02,19,17,27,9.00
2016,02,19,17,28,8.90
2016,02,19,17,29,8.90
2016,02,19,17,30,8.90
2016,02,19,17,31,8.90
2016,02,19,17,32,8.80
2016,02,19,17,33,8.80
2016,02,19,17,34,8.80
2016,02,19,17,35,8.70
2016,02,19,17,36,8.70
2016,02,19,17,37,8.70
2016,02,19,17,38,8.70
2016,02,19,17,39,8.70
2016,02,19,17,40,8.70
2016,02,19,17,41,8.70
2016,02,19,17,42,8.70
2016,02,19,17,43,8.60
2016,02,19,17,44,8.60
2016,02,19,17,45,8.60
2016,02,19,17,46,8.60
2016,02,19,17,47,8.60
2016,02,19,17,48,8.60
2016,02,19,17,49,8.60
2016,02,19,17,50,8.60
2016,02,19,17,51,8.60
2016,02,19,17,52,8.60
2016,02,19,17,53,8.60
2016,02,19,17,54,8.60
2016,02,19,17,55,8.60
2016,02,19,17,56,8.60
2016,02,19,17,57,8.50
2016,02,19,17,58,8.50
2016,02,19,17,59,8.40
2016,02,19,18,00,8.40
2016,02,19,18,01,8.40
2016,02,19,18,02,8.40
2016,02,19,18,03,8.40
2016,02,19,18,04,8.30
2016,02,19,18,05,8.30
2016,02,19,18,06,8.30